Hourly Weather Roundup
Issued by NWS Central Illinois

Current Version | Previous Version | Text Only | Print | Product List | Glossary On
Versions: 1 2 3 4 5 6 7 8 9 10 11 12 13 14 15 16 17 18 19 20 21 22 23 24 25 26 27 28 29 30 31 32 33 34 35 36 37 38 39 40 41 42 43 44 45 46 47 48 49 50
791
NZUS43 KILX 270310
HWRILX

Area Weather Roundup
National Weather Service Lincoln IL
1000 PM CDT THU APR 26 2018

NOTE:  "FAIR" indicates few or no clouds below 12,000 feet, with
       no sigificant weather and/or obstructions to visibility.


CITY           SKY/WX    TMP DP  RH WIND       PRES   REMARKS
Bloomington    FAIR      51  36  56 SW6       29.87F
Champaign      FAIR      52  35  52 W3        29.87F
Danville       FAIR      53  32  45 CALM      29.85S
Decatur        FAIR      54  36  50 S3        29.88S
Effingham      FAIR      53  41  63 CALM      29.91R
Flora          FAIR      54  43  67 CALM      29.90R
Galesburg      FAIR      58  32  37 SW6       29.86S
Jacksonville   CLEAR     54  34  46 SW3       29.88S
Lacon          FAIR      47  37  66 S3        29.83S
Lawrenceville  FAIR      54  40  59 MISG      29.88S
Litchfield     CLEAR     53  43  69 CALM      29.90S
$$


CITY           SKY/WX    TMP DP  RH WIND       PRES   REMARKS
Lincoln        FAIR      55  38  52 CALM      29.87S
Macomb         CLEAR     53  30  41 SW7       29.88S
Mattoon        FAIR      54  37  52 CALM      29.88R
Mt Carmel AP   FAIR      53  41  65 W3        29.88S
Olney-Noble AP FAIR      53  37  54 CALM      29.90R
Paris AP       FAIR      47  37  70 CALM      29.88S
Peoria         FAIR      58  34  40 CALM      29.85F
Pontiac        FAIR      51  33  50 S3        29.86S
Rantoul        FAIR      56  38  52 CALM      29.87S
Robinson       FAIR      47  39  72 CALM      29.89S
Springfield    FAIR      54  37  52 SW5       29.88S
Taylorville    FAIR      53  36  50 SW3       29.89R
$$

...REGIONAL REPORTS...


CITY           SKY/WX    TMP DP  RH WIND       PRES   REMARKS
Chicago O`Hare MOCLDY    55  29  36 S6        29.82S
Kankakee       FAIR      49  36  60 S3        29.86S
La Salle       FAIR      58  33  38 S8        29.83F
Moline         FAIR      57  30  35 SW6       29.81S
Mount Sterling CLEAR     59  32  36 SW5       29.88S
Mount Vernon   FAIR      49  42  77 CALM      29.90S
Pittsfield     CLEAR     58  38  47 SW5       29.90S
Quincy         CLEAR     58  34  40 SW6       29.89R
Rockford       FAIR      55  30  38 S5        29.81S
$$


CITY           SKY/WX    TMP DP  RH WIND       PRES   REMARKS
Burlington     CLEAR     59  29  31 SW7       29.85S
Cedar Rapids   FAIR      55  41  59 NW14      29.87R
Des Moines     CLEAR     55  32  41 NW10      29.98R
Kirksville     PTCLDY    56  34  43 W5        29.91S
Ottumwa        CLEAR     57  40  52 NW22      29.92R
St Louis       MOCLDY    61  40  45 CALM      29.91R
$$


CITY           SKY/WX    TMP DP  RH WIND       PRES   REMARKS
Terre Haute    FAIR      50  38  63 CALM      29.87S
Evansville     FAIR      54  41  61 SW3       29.89R
Indianapolis   MOCLDY    54  33  45 NW6       29.86S
Lafayette      FAIR      50  34  54 CALM      29.86S
Madison        MOCLDY    55  34  45 CALM      29.77S
Milwaukee      CLOUDY    52  28  39 S5        29.79F
$$






USA.gov is the U.S. government's official web portal to all federal, state and local government web resources and services.